Regional Weather Roundup
Issued by NWS Charleston, SC

Current Version | Previous Version | Graphics & Text | Print | Product List | Glossary On
Versions: 1 2 3 4 5 6 7 8 9 10 11 12 13 14 15 16 17 18 19 20 21 22 23 24 25 26 27 28 29 30 31 32 33 34 35 36 37 38 39 40 41 42 43 44 45 46 47 48 49 50
000 ASUS42 KCHS 250913 RWRCHS REGIONAL WEATHER ROUNDUP NATIONAL WEATHER SERVICE CHARLESTON SC 500 AM EDT THU AUG 25 2016 NOTE: "FAIR" INDICATES FEW OR NO CLOUDS BELOW 12,000 FEET WITH NO SIGNIFICANT WEATHER AND/OR OBSTRUCTIONS TO VISIBILITY. NOT ALL STATIONS ARE QUALITY CONTROLLED. USE DATA WITH CAUTION... ESPECIALLY DEWPOINT OBSERVATIONS. SCZ027-030-031-034>040-042>050-251000- ...SOUTHEAST SOUTH CAROLINA... CITY SKY/WX TMP DP RH WIND PRES REMARKS N CHARLESTON CLEAR 69 66 90 N6 30.13S WATERFRONT PRK N/A 78 71 79 N6 30.10F MOUNT PLEASANT FAIR 72 70 94 CALM 30.13S JOHNS ISLAND FAIR 73 70 88 CALM 30.12F PINOPOLIS N/A 79 70 73 NE7 30.06S MONCKS CORNER FAIR 66 64 94 CALM 30.13F SUMMERVILLE FAIR 66 66 100 CALM 30.15S BEAUFORT MCAS CLEAR 72 68 87 N6 30.12S BEAUFORT ARPT FAIR 73 70 88 N5 30.11F HILTON HEAD IS CLEAR 77 70 78 VRB7 30.12S WALTERBORO SUNNY 66 66 100 CALM 30.14F ALLENDALE FAIR 66 66 100 CALM 30.14S ...SOUTHERN MIDLANDS AND PEE DEE... CITY SKY/WX TMP DP RH WIND PRES REMARKS GEORGETOWN FAIR 66 63 88 CALM 30.14F KINGSTREE FAIR 61 59 94 CALM 30.15S ORANGEBURG CLEAR 67 65 93 CALM 30.16S BARNWELL NOT AVBL AIKEN FAIR 68 63 83 CALM 30.20S MANNING FAIR 63 63 100 CALM 30.15S COLUMBIA CLEAR 71 65 81 CALM 30.15S SUMTER CLEAR 67 64 89 NE3 30.14S FLORENCE MOCLDY 66 64 93 CALM 30.16S MYRTLE BEACH MOCLDY 72 57 60 N6 30.16S N MYRTLE BEACH PTCLDY 69 65 86 N3 30.13F $$ GAZ063-065-086>088-099>101-113>116-118-119-134>141-150-251000- ...SOUTHEAST GEORGIA... CITY SKY/WX TMP DP RH WIND PRES REMARKS SAVANNAH ARPT CLEAR 70 67 90 CALM 30.12F HUNTER AAF CLEAR 73 71 95 CALM 30.09S FORT STEWART CLEAR 69 66 90 CALM 30.10S STATESBORO CLEAR 69 68 98 CALM 30.14S SYLVANIA NOT AVBL CLAXTON FAIR 66 66 100 CALM 30.14R ...CSRA...CENTRAL AND FAR SOUTHEAST GEORGIA... CITY SKY/WX TMP DP RH WIND PRES REMARKS THOMSON CLEAR 72 72 100 MISG 30.21R AUGUSTA-BUSH CLEAR 67 67 100 CALM 30.15S AUGUSTA-DANIEL CLEAR 76 66 71 CALM 30.17S SWAINSBORO FAIR 68 66 94 CALM 30.16R VIDALIA CLEAR 70 70 100 CALM 30.14S EASTMAN FAIR 69 69 100 CALM 30.17S FOG HAZLEHURST FAIR 72 72 100 CALM 30.12S ALMA CLEAR 68 67 96 CALM 30.12S WAYCROSS N/A 71 71 100 NE3 30.11S JESUP FAIR 70 70 100 CALM 30.12S BAXLEY FAIR 70 70 100 CALM 30.12S BRUNSWICK CLEAR 70 70 100 CALM 30.11S SAINT SIMONS CLEAR 79 65 62 NE9 30.09S $$ SCZ027-028-034-036>038-045-046-048>050-GAZ119-141-251000- ...LAKE AND SUPPLEMENTAL COASTAL OBSERVATIONS... STATION/POSITION TIME TEMP WIND PRES WAVE SWELL AIR SEA DIR/SP/G HT/PER HT/PER/DIR (UTC) (F) (DEG/KT/KT) (MB) (FT/S) (FT/S/D) WINYAH BAY 0745 72 340/ 6 1020.0 LAKE MURRAY 0800 78 190/ 7/ 10 1020.7S ACE BASIN NERRS NOT AVBL FORT PULASKI 0800 79 86 360/ 6/ 7 1020.1F SAPELO ISLAND 0800 78 40/ 5 1019.0F $$ ANZ835-935-AMZ111-154-330-350-352-354-370-450-454-472-251000- ...C-MAN AND BUOY OBSERVATIONS... STATION/POSITION TIME TEMP WIND PRES WAVE SWELL AIR SEA DIR/SP/G HT/PER HT/PER/DIR (UTC) (F) (DEG/KT/KT) (MB) (FT/S) (FT/S/D) BUOY 41004 0850 82 84 40/ 10/ 12 1018.7F 3/11 2/ 80/11 BUOY 41008 0850 82 84 40/ 14/ 17 1018.7F 3/ 7 2/100/ 8 FOLLY BEACH CMAN 0900 77 360/ 10/ 13 1020.0F CAPERS NEARSHORE 0808 78 84 20/ 10/ 14 1019.6F FRIPP NEARSHORE 0808 81 86 40/ 14/ 17 1018.8F STATION/POSITION TIME TEMP WIND PRES WAVE SWELL AIR SEA DIR/SP/G HT/PER HT/PER/DIR (UTC) (F) (DEG/KT/KT) (MB) (FT/S) (FT/S/D) 5E ST. MARYS GA 0801 84 N/A 4/ 7 2/ 90/12 FRYING PAN BUOY 0800 82 84 100/ 10/ 12 1019.5F BUOY 41025 0850 80 84 110/ 6/ 8 1020.4F 3/11 3/ 70/11 CAPE LOOKOUT NC 0900 80 90/ 7/ 9 1020.2S BUOY 41002 0850 81 84 60/ 17/ 21 1017.8S 6/ 7 2/100/ 9 BUOY 41010 NOT AVBL ST AUGUSTINE FL 0900 82 83 50/ 15/ 17 1018.3F $$

USA.gov is the U.S. government's official web portal to all federal, state and local government web resources and services.